Tracking 35237 objects as of 4-Sep-2026
HD Live streaming from Space Station
objects crossing your sky now

MIR DEB


MIR DEB is no longer on orbit


NORAD ID: 25301
Int'l Code: 1986-017MR
Launch date: February 19, 1986
Source: Commonwealth of Independent States (former USSR) (CIS)
Launch site: TYURATAM MISSILE AND SPACE COMPLEX (TTMTR)
Decay date: 1998-06-10

Note: This is SATELLITE DEBRIS
Your satellite tracking list
Your tracking list is empty




NASA's NSSDC Master Catalog

Two Line Element Set (TLE):
1 25301U 86017MR  98159.26602092  .09210078  11873-4  36508-2 0  9997
2 25301 051.6351 087.1852 0007774 239.2242 120.8790 16.22872211  7336
Source of the keplerian elements: AFSPC